Погода в Гусаровке

Украина / Харьковская область     49°21′30″N   36°48′52″E
темп.,
°C
ветер,
м/с
пор.,
м/с
влажн.,
%
обл.,
%
осадки,
мм/ч
давл.,
гПа
погр.,
м
16 мая, вс
вс1600:00+15юз11700 0.0 101311
03:00+14вюв227487 0.0 101311
06:00+15с117310 0.0 101311
09:00+21св345767 0.0 1013383
12:00+24всв4549100 0.0 10121372
15:00+26всв454599 0.0 10101820
18:00+25св476084 0.1 1008656
21:00+19всв4988100 1.0 1008146
17 мая, пн
пн1700:00+16всв41180100 0.0 1007184
03:00+14в41379100 0.0 1006234
06:00+14в41179100 0.0 1005208
09:00+20вюв7125411 0.0 1005618
12:00+25юв8115148 0.0 10051269
15:00+26ююв79545 0.0 10051429
18:00+24ююв696074 0.0 10051032
21:00+19ююв51279100 0.0 1007356
18 мая, вт
вт1800:00+17ю3783100 0.0 1007249
03:00+14ю349493 0.0 100876
06:00+15юв3590100 0.0 1009178
09:00+16ююз3584100 0.3 1008288
12:00+16ююз238099 0.0 1008190
15:00+22юв345499 0.0 10071310
18:00+18ю4879100 0.8 1006280
21:00+15ю3792100 5.2 1006145
19 мая, ср
ср1900:00+14ююз51193100 1.2 1006513
03:00+14ю4996100 1.8 1005482
06:00+13ююз499563 0.1 1005473
09:00+15ююз687999 0.4 1006863
12:00+15ююз797010 0.6 10061157
15:00+16ююз8117087 1.3 10061256
18:00+12юз71288100 0.3 1007831
21:00+12юз71292100 0.6 1008828
20 мая, чт
чт2000:00+11юз81391100 0.3 1009886
03:00+11юз7139236 0.4 1010677
06:00+10юз6129418 0.0 1012504
09:00+15зюз710675 0.0 1012969
12:00+19зюз675299 0.0 10131548
15:00+21ююз344712 0.0 10121720
18:00+21юв2452100 0.0 10111630
21:00+15в476913 0.0 1011112